Location: Eastchurch
(51.4000°N, 0.8667°E)
Time: 00:10:57
(UTC+00:00)

CZ-2D R/B - Pass Details

Date: 19 January 2026
Orbit: 526 x 594 km, 98.0° (Epoch: 18 February)

Event Time Altitude Azimuth Distance (km) Brightness Sun altitude
Rises 18:31:54 0° 175° (S) 2,661 6.9 -19.4°
Reaches altitude 10° 18:34:02 10° 180° (S) 1,772 6.0 -19.8°
Maximum altitude 18:37:46 55° 259° (WSW) 643 3.9 -20.3°
Drops below altitude 10° 18:41:32 10° 338° (NNW) 1,782 6.1 -20.9°
Sets 18:43:42 0° 343° (NNW) 2,679 7.0 -21.3°
